Location: Newark
(42.7133°N, 87.7910°W)
Time: 02:15:01
(UTC+00:00)

Tiros 1 - Pass Details

Date: 21 October 2019
Orbit: 630 x 664 km, 48.4° (Epoch: 16 November)

Event Time Altitude Azimuth Distance (km) Brightness Sun altitude
Exits shadow 08:46:54 17° 58° (ENE) 1,647 9.8 -37.6°
Drops below altitude 10° 08:48:06 10° 62° (ENE) 2,084 10.5 -37.4°
Sets 08:50:31 0° 68° (ENE) 2,998 11.5 -37.0°
